User: anonymous   Login
Location: Rounton
(54.4000°N, 1.3500°W)
Time: 18:09:45
(UTC+00:00)
Language:

DELTA 1 DEB - Orbit

View from above orbital plane
View from above orbital plane
View from above satellite
View from above satellite

Ground track
Ground track

The orbit data is extracted from the following two-line orbital elements,

1 37662U 78026JZ  22331.18088668  .00000284  00000-0  17275-3 0  9992
2 37662  98.9970 316.4328 0035151 171.8705 188.3044 14.13938612483066
Epoch (UTC): 27 November 2022 04:20:28
Eccentricity: 0.0035151
inclination: 98.9970°
perigee height: 820 km
apogee height: 871 km
right ascension of ascending node: 316.4328°
argument of perigee: 171.8705°
revolutions per day: 14.13938612
mean anomaly at epoch: 188.3044°
orbit number at epoch: 48306

The dashed part of the orbit path shows where the satellite is in the earth's shadow,  

DLR